Regional Weather Roundup
Issued by NWS Wakefield, VA

Home | Current Version | Previous Version | Graphics & Text | Print | Product List | Glossary On
Versions: 1 2 3 4 5 6 7 8 9 10 11 12 13 14 15 16 17 18 19 20 21 22 23 24 25 26 27 28 29 30 31 32 33 34 35 36 37 38 39 40 41 42 43 44 45 46 47 48 49 50
337
ASUS41 KAKQ 250015
RWRAKQ

REGIONAL WEATHER ROUNDUP
NATIONAL WEATHER SERVICE WAKEFIELD VA
800 PM EDT SUN JUL 24 2016

Note: "fair" indicates few or no clouds below 12,000 feet with no
significant weather and/or obstructions to visibility. * = Denotes
station may not report precipitation (e.g., rain,snow,etc.),
thunder or fog.

VAZ042-051-052>054-056-250100-
NORTHERN VIRGINIA

CITY           SKY/WX    TMP DP  RH WIND       PRES   REMARKS
WASH NATIONAL  MOCLDY    90  74  59 S9        29.95R HX  99
DULLES         MOCLDY    89  69  51 S8        29.96R
FORT BELVOIR   FAIR      88  71  57 SE2       29.95R
QUANTICO       FAIR      89  71  55 S7        29.96R HX  95
FREDERICKSBRG*   N/A     88  77  69 CALM      29.95R HX 100
STAFFORD*      FAIR      83  76  77 CALM      30.00R
WARRENTON      FAIR      88  70  55 SE3       29.97R
CULPEPER*      FAIR      86  77  73 CALM      29.97R HX  97
MANASSAS*      CLEAR     88  73  62 S3        29.95S HX  96
LEESBURG*      FAIR      90  73  58 SW6       29.96S HX  98
WINCHESTER     FAIR      90  70  51 S7        29.97R HX  95
FRONT ROYAL*   FAIR      86  72  62 S5        29.95S
LURAY*         FAIR      88  72  58 SW6       29.99R
$$

VAZ048-049-060>072-079>083-250100-
CENTRAL AND SOUTH CENTRAL VIRGINIA

CITY           SKY/WX    TMP DP  RH WIND       PRES   REMARKS
RICHMOND       FAIR      88  77  69 S6        29.96R HX 100
CHESTERFIELD*  FAIR      90  70  51 S3        29.98R HX  95
PETERSBURG*    FAIR      88  81  78 CALM      29.97S HX 105
HANOVER        FAIR      86  78  77 CALM      29.98R HX  98
TAPPAHANNOCK*  FAIR      90  73  57 SE3       29.97R HX  97
QUINTON*       FAIR      88  83  86 CALM      29.95R HX 109
CHARLOTTSVILLE FAIR      91  73  55 E5        29.98R HX  99
GORDONSVILLE*  FAIR      84  77  79 CALM      29.97R
ORANGE*          N/A     86  73  66 CALM      29.99R
LOUISA*        FAIR      88  82  84 CALM      29.97R HX 108
BUMPASS*       FAIR      84  80  86 CALM      29.97R HX  97
FARMVILLE*     FAIR      90  72  55 SW5       29.97R HX  96
CREWE*         FAIR      90  76  64 CALM      29.98R HX 101
FORT PICKETT*  FAIR      87  77  72 SW7       29.98S HX  99
CHASE CITY*    FAIR      87  75  68 CALM      30.00R HX  96
CLARKSVILLE*   FAIR      86  79  79 CALM      29.99S HX  99
SOUTH HILL*    FAIR      87  75  68 S3        30.05R HX  96
LAWRENCEVILLE* FAIR      87  76  69 S3        29.99R HX  98
EMPORIA*       FAIR      88  73  62 S3        29.99S HX  96
$$

VAZ088>098-250100-
SOUTHEAST VIRGINIA

CITY           SKY/WX    TMP DP  RH WIND       PRES   REMARKS
NORFOLK        FAIR      93  74  53 SW9       29.96R HX 103
VIRGINIA BEACH MOCLDY    95  74  50 SW8       29.96R HX 105
NORFOLK NAVAL  MOCLDY    91  73  55 SW8       29.98R HX  99
WEST POINT*    FAIR      83  74  75 E6        29.97S
SALUDA*        FAIR      83  79  88 CALM      29.96F HX  95
NEWPORT NEWS   FAIR      91  76  61 SW7       29.96R HX 103
LANGLEY AFB    FAIR      89  77  68 E6        29.96R HX 101
FORT EUSTIS    FAIR      91  81  71 VRB1      29.95R HX 111
WILLIAMSBURG*  FAIR      93  79  62 S3        29.97R HX 110
HR EXEC AP*    FAIR      90  75  62 SW6       29.99R HX 100
FRANKLIN*      FAIR      89  74  62 SW5       29.98S HX  98
US460-WAKEFLD  FAIR      89  75  63 S3        29.97R HX  99
$$

VAZ020-022-025-037-045-250100-
WEST CENTRAL AND SOUTHWEST VIRGINIA

CITY           SKY/WX    TMP DP  RH WIND       PRES   REMARKS
STAUNTON*      FAIR      85  74  68 N6        30.04R
WAYNESBORO*    FAIR      88  70  54 S3        30.03R
HOT SPRINGS VA FAIR      79  66  65 SW7       30.20R
LYNCHBURG      FAIR      86  73  65 S7        30.02R
DANVILLE       FAIR      88  73  61 S3        29.99S HX  95
SOUTH BOSTON*  FAIR      88  73  61 CALM      29.99S HX  96
MARTINSVILLE   FAIR      85  75  73 CALM      30.04R
ROANOKE        FAIR      91  66  43 SW6       30.03R
BLACKSBURG     FAIR      80  75  84 CALM      30.12S
DUBLIN*        FAIR      88  65  47 S5        30.10S
MARION*        CLOUDY    82  69  64 SW3       30.15R
HILLSVILLE*    FAIR      82  67  59 S3        30.13R
RICHLANDS*     MOCLDY    85  68  57 NW5       30.13R
WISE*          FAIR      82  63  51 CALM      30.15R
ABINGDON*      CLOUDY    85  73  67 W3        30.09R
$$

MDZ021>025-VAZ099-100-250100-
SOUTHERN MARYLAND AND THE DELMARVA PENINSULA

CITY           SKY/WX    TMP DP  RH WIND       PRES   REMARKS
PATUXENT RIVER CLEAR     85  75  72 S6        29.96R
BAY BRIDGE APT CLEAR     88  72  58 SE3       29.95S
LEONARDTOWN    CLEAR     88  70  55 S3        29.98R
DOVER          CLEAR     81  76  83 SE7       29.96S
GEORGETOWN     CLEAR     84  70  62 SE6       29.98R
EASTON         MOCLDY    90  75  62 SE5       30.00R HX 100
CAMBRIDGE      CLEAR     86  72  62 CALM      29.97R
SALISBURY      CLEAR     83  70  64 SE5       29.98R
OCEAN CITY     PTCLDY    79  76  90 VRB3      29.99R
WALLOPS ISLAND FAIR      81  77  88 MISG      29.99R
ACCOMACK*      FAIR      82  77  83 CALM      29.97F
$$

NCZ012>017-030>032-250100-
NORTH CENTRAL AND EASTERN NORTH CAROLINA

CITY           SKY/WX    TMP DP  RH WIND       PRES   REMARKS
ROANOKE RAPIDS FAIR      84  79  84 CALM      29.99R HX  96
RALEIGH        MOCLDY    90  72  55 S6        30.00R HX  97
ELIZABETH CITY CLEAR     88  75  65 S6        29.99R HX  97
AHOSKIE*       CLEAR     84  80  87 CALM      29.99S HX  96
EDENTON*       CLEAR     91  75  58 SW3       30.00R HX 102
CURRITUCK*     CLEAR     89  75  63 CALM      29.99R HX 100
KILL DEVIL HLS CLEAR     87  77  72 S7        29.99S HX  98
MANTEO           N/A     86  80  83 SW15      30.00S HX 101
CAPE HATTERAS  CLEAR     84  78  82 SW8       30.02S HX  95
TARBORO*       FAIR      87  81  83 CALM      29.99S HX 105
GOLDSBORO      CLEAR     89  78  71 S7        29.99R HX 103
WASHINGTON     CLEAR     87  78  75 S5        29.99S HX 100
GREENVILLE     CLEAR     90  77  66 S3        30.01R HX 102
NEW BERN       CLEAR     84  75  74 S6        30.02R
WILMINGTON     CLEAR     85  74  69 S6        30.01S
$$

VAZ048-250100-
ELSEWHERE

CITY           SKY/WX    TMP DP  RH WIND       PRES   REMARKS
HARRISBURG PA  CLOUDY    88  73  61 S5        29.93S HX  95
BALTIMORE      CLOUDY    87  67  51 SE5       29.95R
ANNAPOLIS      CLEAR     87  71  58 S7        29.94S
ANDREWS AFB    FAIR      85  71  64 SE8       29.95S
PHILADELPHIA   MOCLDY    89  66  46 S9        29.96R
GREENSBORO     CLOUDY    91  66  43 S8        30.01S
ROCKY MOUNT    CLEAR     85  78  80 CALM      29.99S HX  96
$$

VAZ100-250100-
MARINE

STATION/POSITION TIME  TEMP    WIND        PRES    WAVE   SWELL
                       AIR SEA DIR/SP/G            HT/PER HT/PER
                 (UTC) (F)     (DEG/KT/KT) (MB)    (FT/S) (FT/S)
BRANDYWINE LGT   2300   79                   N/A
CAPE MAY NJ      2300   81 74                N/A
LEWES DE         2300   82 75                N/A
OCEAN-CITY-INLET 2300   81 74                N/A
WACHAPREAGUE VA  2300   84                   N/A
THOMAS POINT MD  0000   87 83  170/  8/  8 1015.6S
GOOSES REEF MD   2300   89 87  170/  8/ 10 1015.2F   1
COVE POINT MD    2300   87                   N/A
SOLOMONS ISLAND  2300   89 87                N/A
BISHOPS HEAD MD  2300   89                   N/A
PINEY POINT MD   2300          150/ 12/ 12   N/A
POTOMAC MD       2300   88 86  160/ 10/ 10 1013.3S   0
CAMBRIDGE MD     2300   93 87                N/A
LEWISETTA VA     2300   90 88                N/A
RAPPAHANNOCK LGT 2300          120/ 12/ 13   N/A
STINGRAY PT      2300   88 87   80/ 12/ 14 1015.0R   1
YORK RVR RNG VA  2300   86                   N/A
YORKTOWN VA      2300   91 87                N/A
JAMESTOWN VA     2300   94 90  180/  2/  4   N/A
DOMINION TERM VA 2300   91                   N/A
KIPTOPEKE VA     2300      83                N/A
CHES BAY BRIDGE  2300   83 80                N/A
CAPE HENRY VA    2300   82                   N/A
WILLOUBY STN VA  2300   87                   N/A
CAPE HENRY BUOY  2312      81                N/A     2/ 8
1ST LANDING BUOY 2300   83 83  100/  8/ 10 1014.1R
CAPE CHARLES BUO 2326      74                N/A     1/ 8
OFFSHORE WE BUOY 2321      83                N/A     2/ 8
64NM E OF VA BCH 2350   83 82  200/ 14/ 16 1015.3R   2/ 8   2/ 8
DUCK PIER NC     2300   84 70                N/A
44100 DUCK FRF   2305      81                N/A     2/ 8
44056 DUCK FRF   2311      79                N/A     1/ 9
OREGON INLET NC  2300   86 86                N/A
HATTERAS NC      2300   84 84                N/A
DIAMOND SHLS NC  2350   85 85  230/ 12/ 16 1016.8R   2/ 8   2/ 8
CAPE LOOKOUT NC  0000   84     210/  9/ 12 1016.4S
$$




USA.gov is the U.S. government's official web portal to all federal, state and local government web resources and services.